Погода в Павлодаре

Поиск расширенной информации на нашем сайте:

Полезная информация:

Новости сайта



02.01.2020
Опубликован Долгосрочный прогноз погоды по городам России и ближнего зарубежья на январь 2020 года.
Карты: Прогноз на январь и февраль 2020 года, Сравнение прогнозируемой аномалии приземной температуры воздуха на январь 2020 года по разным моделям.




Погода в Павлодаре - сегодня

Время (UTC), дата Ветер
(°,м/с) 
Видим.   Явления Облачность Т
(°С)
Тd
(°С)
f(%) Тe
(°С)
Pmin
(гПа)
dP
(гПа)
Po
(мм)
O2
(г/м3)
Тmin Tmax R s Состояние
почвы
00 19.01.20 260 (З) 4000 м  снег  10/10 600 м 
[Ns]
-5.5 -6.6 92 -9  1018  -1.2  752  310           
03 19.01.20 280 (З) 10 км  слаб. снег  10/10 300 м 
[Ns]
-5.2 -6.6 90 -8  1017.9  -0.1  752  310      28  равномерный
сухой снег
100% 
06 19.01.20 290 (З) 10 км  слаб. снег  10/10 300 м 
[Ns]
-4 -5.5 89 -5  1018.2  0.4  752  308  -5.8       
09 19.01.20 320 (СЗ) 10 км  слаб. снег  10/10 300 м 
[Ns]
-3.3 -4.7 90 -5  1018.2  0.1  752  307           
12 19.01.20 320 (СЗ) 20000 м  позёмок{снег}  3/0 средняя 
[Ac trans]
-8.4 -11.2 80 -12  1021.5  2.9  754  315           
15 19.01.20 310 (СЗ) 20000 м    ясно 
-13.2 -15.2 85 -17  1024.5  2.7  756  322    -2.9  0.4     
18 19.01.20 290 (З) 20000 м    ясно 
-16.7 -18.9 83 -19  1026.9  2.1  758  327    -2.9  0.4     
21 19.01.20 250 (З) 10 км  слаб. снег  10/0 средняя 
[As op]
-18.7 -21.3 80 -19  1028.9  1.8  759  330           
00 20.01.20 310 (СЗ) 20000 м  в посл. час снег  8/0 средняя 
[As op]
-19.2 -22.1 78 -19  1029.8  0.9  760  331           
03 20.01.20 тихо ()   20000 м    5/0 верхняя 
[Ci fib]
-23.1 -26.2 76 -23  1030.8  0.8  761  337      0.3  35  равномерный
сухой снег
100% 
06 20.01.20 170 (Ю) 20000 м    9/0 средняя, верхняя 
[Ac trans|Cs]
-20.8 -23.8 77 -21  1030.7  761  333  -23.2    0.3     
09 20.01.20 170 (Ю) 20000 м    9/0 верхняя 
[Cs]
-17.4 -20.2 79 -20  1028.9  -1.5  760  328           
12 20.01.20 160 (Ю) 20000 м    4/0 верхняя 
[Cs]
-18.6 -21.3 79 -19  1028  -1.1  759  330           
15 20.01.20 180 (Ю) 20000 м  в посл. час снег  10/5 600 м средняя 
[Sc|As op]
-16.6 -19.1 81 -19  1025.5  -2.3  757  326    -16.6  0.0     
18 20.01.20 160 (Ю) 20000 м  {снег}  10/6 1000 м средняя 
[Sc|Ac und]
-15.3 -17.7 82 -18  1022.9  -2.4  755  324    -16.6  0.0     
21 20.01.20 170 (Ю) 10 км  слаб. снег  10/8 600 м средняя 
[Sc|Ac und]
-13.4 -16 81 -16  1019.7  -3.1  753  320           
00 21.01.20 220 (ЮЗ) 20000 м  в посл. час снег  10/8 600 м средняя 
[Sc|As op]
-13 -15.3 83 -15  1018  -1.7  752  319           
03 21.01.20 190 (Ю) 20000 м    10/0 средняя 
[Ac As]
-13.1 -15.2 84 -13  1017.4  -0.5  751  319      36  равномерный
сухой снег
100% 
06 21.01.20 190 (Ю) 10 км  слаб. снег  10/0 средняя 
[As op]
-10.9 -13.2 83 -11  1018  0.6  752  317  -16.6       
09 21.01.20 220 (ЮЗ) 10 км  слаб. снег  10/0 средняя 
[As op]
-9.5 -12.1 81 -9  1017.9  752  315           
12 21.01.20 170 (Ю) 10 км  слаб. снег  10/0 средняя 
[As op]
-11.1 -12.7 88 -11  1019.1  1.2  753  317           
15 21.01.20 180 (Ю) 10 км  слаб. снег  10/0 средняя 
[As op]
-10.7 -12.2 89 -11  1019.3  0.2  753  317    -8.3  0.4     
18 21.01.20 190 (Ю) 20000 м  {снег}  10/0 средняя 
[Ac trans]
-13.2 -15 86 -15  1019.3  -0.2  753  320    -8.3  0.4     
21 21.01.20 180 (Ю) 20000 м    10/0 верхняя 
[Cs]
-13.9 -15.9 85 -16  1018.3  -1  752  321           
00 22.01.20 230 (ЮЗ) 10 км  слаб. снег  10/0 средняя 
[As op]
-8.6 -9.7 92 -10  1017.5  -0.5  751  314           
Время (UTC), дата Ветер
(°,м/с) 
Видим.   Явления Облачность Т
(°С)
Тd
(°С)
f(%) Тe
(°С)
Pmin
(гПа)
dP
(гПа)
Po
(мм)
O2
(г/м3)
Тmin Tmax R s Состояние
почвы

Для получения пояснительной информации подведите курсор к названию столбца.

ПОГОДА в Павлодаре - архив

Всё, что Вы хотите узнать о погоде в Павлодаре - удобно и подробно!

Выберите нужную дату (начиная с 1 января 2019* года) и нажмите кнопку "Найти".
Будут отображены архивные сводки погоды по пункту Павлодар, начиная с указанной даты.


Отображать данные в формате CSV (для использования в таблицах Excel)


Внимание! Наш архив погоды предназначен исключительно для личного некоммерческого использования в познавательных целях. Если Вам необходимы официальные справки о состоянии погоды (для производственных, юридических, коммерческих и т.п. целей), обращайтесь в органы Росгидромета.

*Примечание: данная дата относится к архиву по метеостанциям СССР (Россия, СНГ, Балтия).
Архив по метеостанциям Зарубежной Европы и Азии (кроме Китая) хранится 10 дней, по другим регионам земного шара (Китай, Африка, Америка, Австралия, Океания) - 1 день.

Павлодар - район местоположения метеостанции


Название, широта, долгота, высота метеостанции:
Павлодар 52.1°ш. 77.1°д. 125 м над ур. моря [Казахстан]

Дополнительная информация

В oтличие oт бoльшинства пoгoдных сайтoв мы публикуем пoдрoбную метеoинфoрмацию в детальнoм прoфессиoнальнoм фoрмате.

Характеристики температуры и влажнoсти вoздуха измеряются на высoте 2 м в тени вдали oт зданий и деревьев.
Скoрoсть ветра измеряется на высoте 10 м (на урoвне рoста челoвека скoрoсть ветра ниже в 1.5-2 раза). Если метеoстанция нахoдится в гoрoде или в лесу, тo скoрoсть ветра занижена на 2-4 м/с пo сравнению с oткрытым местoм. Скoрoсть ветра над акватoриями крупных рек и oзёр, а также на вершинах хoлмoв на 2-5 м/с выше, чем в oбычных услoвиях.
Атмoсфернoе давление в разных тoчках местнoсти мoжет значительнo oтличаться oт давления на метеoстанции, в зависимoсти oт услoвий рельефа (при пoдъёме на 10 м давление пoнижается примернo на 1 мм рт.ст.).